Tracking 19832 objects as of 25-Aug-2019
HD Live streaming from Space Station
objects crossing your sky now

CHINASAT 7

Track CHINASAT 7 now!
CHINASAT 7 is classified as:


NORAD ID: 24282
Int'l Code: 1996-048A
Perigee: 22,192.2 km
Apogee: 45,994.3 km
Inclination: 21.5 °
Period: 1,350.1 minutes
Semi major axis: 40464 km
RCS: 1 m2 (large)
Launch date: August 18, 1996
Source: People's Republic of China (PRC)
Launch site: Xichang Space Center, China (XSC)
aabbcc
Your satellite tracking list
Your tracking list is empty




NASA's NSSDC Master Catalog

Two Line Element Set (TLE):
1 24282U 96048A   19236.58930212 -.00000093  00000-0  00000+0 0  9998
2 24282  21.4799 256.5331 2941128 160.0595 206.9208  1.06658479 92150
Source of the keplerian elements: AFSPC